Regional Weather Roundup
Issued by NWS Kansas City/Pleasant Hill, MO

Home | Current Version | Previous Version | Text Only | Print | Product List | Glossary On
Versions: 1 2 3 4 5 6 7 8 9 10 11 12 13 14 15 16 17 18 19 20 21 22 23 24 25 26 27 28 29 30 31 32 33 34 35 36 37 38 39 40 41 42 43 44 45 46 47 48 49 50
000
ASUS43 KEAX 111610
RWREAX

WEATHER ROUNDUP FOR EASTERN KANSAS AND NORTHWEST MISSOURI
NATIONAL WEATHER SERVICE KANSAS CITY/PLEASANT HILL MO
1000 AM CST THU FEB 11 2016

KSZ040-057-103>105-MOZ028-029-037-043-111700-
...KANSAS CITY METROPOLITAN AREA...

CITY           SKY/WX    TMP DP  RH WIND       PRES   REMARKS
K.C. INTL      PTSUNNY   26  20  77 NE6       30.31R WCI  19
K.C. DOWNTOWN  CLOUDY    28  20  71 NE8       30.32R WCI  20
LEES SUMMIT    CLOUDY    26  20  77 NE9       30.31R WCI  17
OLATHE - IXD   SUNNY     28  19  69 E8        30.30R WCI  20
OLATHE - OJC   SUNNY     27  18  69 E7        30.30R WCI  19
LAWRENCE       SUNNY     28  20  71 E10       30.33R WCI  19

$$

MOZ001>008-011>017-020>025-030>033-038>040-044>046-053-054-111700-
...NORTHERN AND CENTRAL MISSOURI...

CITY           SKY/WX    TMP DP  RH WIND       PRES   REMARKS
ST. JOSEPH     MOSUNNY   24  16  71 NE7       30.35R WCI  16
MOSBY          CLOUDY    27  19  74 E8        30.33R WCI  18
WARRENSBURG    MOSUNNY   30  21  69 NE7       30.31R WCI  23
WHITEMAN AFB   MOSUNNY   29  20  68 E10       30.29S WCI  20
CLINTON          N/A     32  23  69 E10       30.29S WCI  24
SEDALIA        SUNNY     29  18  63 E9        30.31R WCI  20
WARSAW         NOT AVBL
CHILLICOTHE      N/A     24  11  57 VRB6      30.36R WCI  17
KIRKSVILLE     SUNNY     17   5  59 NE5       30.34R WCI  10

$$

MOZ041-047>049-056>058-063>065-088>090-097-111700-
...EASTERN AND SOUTHERN MISSOURI...

CITY           SKY/WX    TMP DP  RH WIND       PRES   REMARKS
ST. LOUIS INTL CLOUDY    24  13  62 NE7       30.34R WCI  16
SPIRIT OF STL  CLOUDY    24  17  74 NE9       30.34R WCI  14
COLUMBIA       CLOUDY    24  15  68 NE7       30.32R WCI  16
JEFFERSON CITY MOSUNNY   26  17  68 E8        30.33R WCI  18
ROLLA          SUNNY     25  20  81 NE10      30.26R WCI  15
OSAGE BEACH    SUNNY     28  18  64 E12       30.29R WCI  18
SPRINGFIELD    SUNNY     33  16  49 NE8       30.21R WCI  26
BRANSON        SUNNY     32  14  47 SE9       30.20R WCI  24
JOPLIN         SUNNY     33  20  58 NE8       30.24R WCI  26
WEST PLAINS    SUNNY     32  13  45 E9        30.22R WCI  24

$$

IAZ060-094-KSZ022-034>040-054-083-096-NEZ052-066-093-111700-
...KANSAS...SOUTHEAST NEBRASKA AND IOWA...

CITY           SKY/WX    TMP DP  RH WIND       PRES   REMARKS
TOPEKA         MOSUNNY   29  19  66 E10       30.31R WCI  20
MANHATTAN      CLOUDY    25  21  85 NE7       30.31R WCI  17
EMPORIA        SUNNY     28  21  75 NE8       30.28R WCI  20
CHANUTE        SUNNY     31  22  69 NE12      30.26R WCI  22
WICHITA        MOSUNNY   33  22  63 NE13      30.26R WCI  24
OMAHA          CLOUDY    16   5  62 SE6       30.32R WCI   7
LINCOLN        CLOUDY    21  15  78 SE5       30.30S WCI  15
LAMONI         SUNNY     17   1  49 E7        30.32S WCI   8
DES MOINES     CLOUDY    13  -1  54 SE5       30.34F WCI   5

$$




USA.gov is the U.S. government's official web portal to all federal, state and local government web resources and services.